Weather History for Glenwood, MN

Change the Weather History Date:

Saturday, November 5, 2011

  Actual Average Record
Temperature  
Mean Temperature 46 °F -  
Max Temperature 55 °F 43 °F 73 °F (2001)
Min Temperature 37 °F 26 °F -6 °F (1951)
Degree Days  
Heating Degree Days 19    
Moisture  
Dew Point 34 °F    
Average Humidity 62    
Maximum Humidity 87    
Minimum Humidity 41    
Precipitation  
Precipitation 0.00 in - - ()
Sea Level Pressure  
Sea Level Pressure 29.72 in    
Wind  
Wind Speed 22 mph (SSE)    
Max Wind Speed 31 mph    
Max Gust Speed 41 mph    
Visibility 10 miles    
Events      
Averages and records for this station are not official NWS values.
T = Trace of Precipitation, MM = Missing Value Source: NWS Daily Summary

Daily Weather History Graph

Daily Weather History Graph

Search for Another Location

Airport:

Trip Planner

Search our weather history database for the weather conditions in past years. The results will help you decide how hot, cold, wet, or windy it might be!

Date:

Astronomy

Nov. 05, 2011 Rise Set
Actual Time 8:06 AM CDT 6:02 PM CDT
Civil Twilight 7:35 AM CDT 6:34 PM CDT
Nautical Twilight 6:59 AM CDT 7:09 PM CDT
Astronomical Twilight 6:25 AM CDT 7:43 PM CDT
Moon 3:32 PM CDT (11/5) 3:03 AM CDT (11/5)
Length of Visible Light 10h 58m
Length of Day
9h 56m
Waxing Gibbous, 78% of the Moon is Illuminated
Nov 5
Waxing Gibbous
Nov 10
Full
Nov 18
Last Quarter
Nov 25
New
Dec 2
First Quarter

Hourly Weather History & Observations

Time (CDT) Temp. Windchill Dew Point Humidity Pressure Visibility Wind Dir Wind Speed Gust Speed Precip Events Conditions
12:14 AM 41.0 °F 31.4 °F 28.4 °F 61% 29.93 in 10.0 mi SSE 21.9 mph 27.6 mph N/A   Clear
12:34 AM 41.0 °F 31.4 °F 28.4 °F 61% 29.92 in 10.0 mi SSE 21.9 mph 26.5 mph N/A   Clear
12:54 AM 42.8 °F 34.0 °F 28.4 °F 57% 29.91 in 10.0 mi SSE 20.7 mph 29.9 mph N/A   Clear
1:13 AM 41.0 °F 31.1 °F 28.4 °F 61% 29.91 in 10.0 mi SSE 23.0 mph 29.9 mph N/A   Clear
1:34 AM 41.0 °F 31.4 °F 28.4 °F 61% 29.91 in 10.0 mi SSE 21.9 mph 28.8 mph N/A   Clear
1:53 AM 41.0 °F 31.1 °F 28.4 °F 61% 29.90 in 10.0 mi SSE 23.0 mph 26.5 mph N/A   Clear
2:34 AM 41.0 °F 32.2 °F 28.4 °F 61% 29.89 in 10.0 mi SSE 18.4 mph 26.5 mph N/A   Clear
2:54 AM 41.0 °F 32.2 °F 28.4 °F 61% 29.89 in 10.0 mi SSE 18.4 mph 27.6 mph N/A   Clear
3:13 AM 41.0 °F 31.6 °F 30.2 °F 65% 29.88 in 10.0 mi SSE 20.7 mph 25.3 mph N/A   Clear
3:34 AM 41.0 °F 32.5 °F 30.2 °F 65% 29.87 in 10.0 mi SSE 17.3 mph 25.3 mph N/A   Clear
3:53 AM 41.0 °F 31.1 °F 30.2 °F 65% 29.87 in 10.0 mi SSE 23.0 mph 26.5 mph N/A   Clear
4:34 AM 39.2 °F 29.6 °F 30.2 °F 70% 29.85 in 10.0 mi SSE 19.6 mph 26.5 mph N/A   Clear
4:54 AM 39.2 °F 29.6 °F 30.2 °F 70% 29.84 in 10.0 mi SSE 19.6 mph 26.5 mph N/A   Clear
5:14 AM 39.2 °F 29.8 °F 32.0 °F 75% 29.84 in 10.0 mi SSE 18.4 mph 24.2 mph N/A   Clear
5:34 AM 39.2 °F 29.6 °F 32.0 °F 75% 29.83 in 10.0 mi SSE 19.6 mph 26.5 mph N/A   Clear
5:53 AM 39.2 °F 30.2 °F 32.0 °F 75% 29.83 in 10.0 mi SSE 17.3 mph 26.5 mph N/A   Clear
6:14 AM 39.2 °F 29.8 °F 32.0 °F 75% 29.82 in 10.0 mi SSE 18.4 mph 25.3 mph N/A   Clear
6:33 AM 39.2 °F 29.6 °F 32.0 °F 75% 29.82 in 10.0 mi SSE 19.6 mph 24.2 mph N/A   Clear
7:13 AM 39.2 °F 30.2 °F 33.8 °F 81% 29.81 in 10.0 mi SSE 17.3 mph 23.0 mph N/A   Clear
7:33 AM 37.4 °F 27.5 °F 33.8 °F 87% 29.80 in 10.0 mi SE 18.4 mph - N/A   Clear
7:53 AM 37.4 °F 27.8 °F 33.8 °F 87% 29.80 in 10.0 mi SE 17.3 mph - N/A   Clear
8:33 AM 37.4 °F 27.8 °F 33.8 °F 87% 29.79 in 10.0 mi SE 17.3 mph - N/A   Clear
8:54 AM 39.2 °F 30.2 °F 33.8 °F 81% 29.79 in 10.0 mi SE 17.3 mph - N/A   Clear
9:14 AM 41.0 °F 32.8 °F 33.8 °F 76% 29.78 in 10.0 mi SSE 16.1 mph - N/A   Clear
10:14 AM 44.6 °F 35.9 °F 35.6 °F 71% 29.77 in 10.0 mi SSE 23.0 mph 28.8 mph N/A   Clear
10:33 AM 44.6 °F 36.4 °F 33.8 °F 66% 29.76 in 10.0 mi SE 20.7 mph 28.8 mph N/A   Clear
10:54 AM 44.6 °F 37.2 °F 33.8 °F 66% 29.75 in 10.0 mi SE 17.3 mph 27.6 mph N/A   Clear
11:14 AM 48.2 °F - 33.8 °F 58% 29.75 in 10.0 mi SSE 19.6 mph 26.5 mph N/A   Clear
11:33 AM 50.0 °F - 33.8 °F 54% 29.74 in 10.0 mi SSE 20.7 mph 26.5 mph N/A   Clear
11:54 AM 51.8 °F - 33.8 °F 50% 29.73 in 10.0 mi SSE 23.0 mph 32.2 mph N/A   Clear
12:13 PM 53.6 °F - 33.8 °F 47% 29.72 in 10.0 mi SE 21.9 mph 28.8 mph N/A   Clear
12:34 PM 51.8 °F - 32.0 °F 47% 29.71 in 10.0 mi SSE 23.0 mph 28.8 mph N/A   Clear
12:54 PM 53.6 °F - 33.8 °F 47% 29.69 in 10.0 mi SSE 24.2 mph 34.5 mph N/A   Clear
1:14 PM 55.4 °F - 33.8 °F 44% 29.69 in 10.0 mi SE 24.2 mph 31.1 mph N/A   Clear
1:34 PM 55.4 °F - 32.0 °F 41% 29.68 in 10.0 mi SSE 26.5 mph 31.1 mph N/A   Clear
2:34 PM 55.4 °F - 33.8 °F 44% 29.65 in 10.0 mi SE 24.2 mph 29.9 mph N/A   Clear
3:13 PM 53.6 °F - 33.8 °F 47% 29.63 in 7.0 mi SE 24.2 mph 29.9 mph N/A   Clear
3:34 PM 55.4 °F - 33.8 °F 44% 29.62 in 10.0 mi SE 25.3 mph 33.4 mph N/A   Clear
3:54 PM 55.4 °F - 32.0 °F 41% 29.61 in 10.0 mi SSE 27.6 mph 33.4 mph N/A   Clear
4:13 PM 55.4 °F - 33.8 °F 44% 29.61 in 10.0 mi SE 25.3 mph 33.4 mph N/A   Clear
4:34 PM 55.4 °F - 33.8 °F 44% 29.60 in 10.0 mi SE 24.2 mph 33.4 mph N/A   Clear
4:54 PM 55.4 °F - 35.6 °F 47% 29.59 in 10.0 mi SE 27.6 mph 33.4 mph N/A   Clear
5:13 PM 55.4 °F - 35.6 °F 47% 29.58 in 10.0 mi SE 28.8 mph 35.7 mph N/A   Clear
5:34 PM 53.6 °F - 35.6 °F 51% 29.58 in 10.0 mi SE 26.5 mph 32.2 mph N/A   Clear
5:53 PM 53.6 °F - 35.6 °F 51% 29.58 in 10.0 mi SE 23.0 mph 32.2 mph N/A   Clear
6:14 PM 53.6 °F - 37.4 °F 54% 29.57 in 10.0 mi SE 28.8 mph 39.1 mph N/A   Clear
6:34 PM 53.6 °F - 37.4 °F 54% 29.55 in 10.0 mi SE 31.1 mph 36.8 mph N/A   Clear
6:54 PM 53.6 °F - 37.4 °F 54% 29.56 in 10.0 mi SSE 29.9 mph 40.3 mph N/A   Clear
7:14 PM 53.6 °F - 37.4 °F 54% 29.55 in 10.0 mi SE 26.5 mph 41.4 mph N/A   Clear
7:34 PM 51.8 °F - 39.2 °F 62% 29.56 in 10.0 mi SE 24.2 mph 33.4 mph N/A   Clear
8:14 PM 50.0 °F - 39.2 °F 66% 29.57 in 10.0 mi SE 21.9 mph 32.2 mph N/A   Clear
8:33 PM 50.0 °F - 39.2 °F 66% 29.57 in 10.0 mi SE 27.6 mph 33.4 mph N/A   Clear
8:54 PM 48.2 °F - 39.2 °F 71% 29.58 in 10.0 mi SE 24.2 mph 34.5 mph N/A   Clear
9:14 PM 48.2 °F - 39.2 °F 71% 29.58 in 10.0 mi SSE 20.7 mph 32.2 mph N/A   Clear
9:34 PM 48.2 °F - 39.2 °F 71% 29.59 in 10.0 mi SSE 20.7 mph - N/A   Clear
10:14 PM 48.2 °F - 39.2 °F 71% 29.61 in 10.0 mi SSE 19.6 mph 29.9 mph N/A   Scattered Clouds
10:34 PM 48.2 °F - 39.2 °F 71% 29.61 in 10.0 mi SSE 19.6 mph 28.8 mph N/A   Mostly Cloudy
11:14 PM 46.4 °F 39.0 °F 39.2 °F 76% 29.62 in 10.0 mi SSE 19.6 mph 33.4 mph N/A   Overcast
11:33 PM 46.4 °F 38.5 °F 39.2 °F 76% 29.62 in 10.0 mi SSE 21.9 mph 27.6 mph N/A   Overcast
11:54 PM 46.4 °F 38.7 °F 39.2 °F 76% 29.61 in 10.0 mi SSE 20.7 mph 27.6 mph N/A   Overcast